User: anonymous   Login
Location: ????????
(37.9452°N, 23.1472°E)
Time: 02:02:07
(UTC+00:00)
Language:

IRS-P2 Rocket - Orbit

View from above orbital plane
View from above orbital plane
View from above satellite
View from above satellite

Ground track
Ground track

The orbit data is extracted from the following two-line orbital elements,

1 23324U 94068B   24167.42655421  .00000076  00000-0  59017-4 0  9999
2 23324  98.9331 230.4844 0056854 200.2126 159.6797 14.17146191533881
Epoch (UTC): 15 June 2024 10:14:14
Eccentricity: 0.0056854
inclination: 98.9331°
perigee height: 794 km
apogee height: 876 km
right ascension of ascending node: 230.4844°
argument of perigee: 200.2126°
revolutions per day: 14.17146191
mean anomaly at epoch: 159.6797°
orbit number at epoch: 53388

The dashed part of the orbit path shows where the satellite is in the earth's shadow,  

DLR